Juan Ortiz

Olheiro-Chefe - Temperley
17 Jul 2027
Sábado
Processo

Personalidade

Adaptabilidade (12) Ambição (8) Controvérsia (8) Lealdade (6) Pressão (4) Profissionalismo (3) Espírito Esportivo (3) Temperamento (12)

Perfil

Estilo de Treinamento Democrático
Licença Nacional B
Determinação 4
Gestão de Pessoas 6
Motivação 4
Disciplina 3
Satisfação no Trabalho
55%
Fadiga
0%
Função Olheiro-Chefe
Salário 21.5K p/s
Contrato 14.03.2030

Desempenho

Comportamento Bom
Eficácia do Treinamento
10%
Desenvolvimento do Jogador
15%
Prevenção de Lesões
10%
Implementação Tática
10%

Eventos Recentes

Participou de uma reunião de recrutamento agora
Participou de uma reunião de recrutamento 7d atrás
Participou de uma reunião de recrutamento 14d atrás
Participou de uma reunião de recrutamento 21d atrás
Participou de uma reunião de recrutamento 28d atrás
Participou de uma reunião de recrutamento 35d atrás
Participou de uma reunião de recrutamento 49d atrás
Participou de uma reunião de recrutamento 56d atrás

Monitorando agora

141
Jogador Clube Status Habilidade Confiança Observado Última observação Último voto
Santiago Viera Cerrito Ativo 113 / 100 40% 2 29.11.2026 -
Lucas Dilelio Morelia Ativo 75 / 106 40% 2 29.11.2026 -
Vicente Pizarro Rosario Central Ativo 106 / 124 40% 1 29.11.2026 -
Lucas Arzamendia Atenas Ativo 106 / 99 40% 2 28.11.2026 -
Ezequiel Busquets Montevideo City Torque Ativo 99 / 112 40% 4 26.11.2026 -
Juan Fernando Alfaro Olimpia Ativo 125 / 103 40% 4 26.11.2026 -
Valentín Serrano Arsenal Ativo 103 / 116 40% 2 26.11.2026 -
Elías Báez Atlanta United FC Ativo 111 / 105 40% 2 26.11.2026 -
Julián Cosi Madryn Ativo 104 / 116 40% 1 24.11.2026 -
Franco Quinteros Estudiantes Ativo 108 / 112 40% 1 23.11.2026 -
Enzo Vlaeminch Oriental Ativo 94 / 102 40% 1 23.11.2026 -
Agustín Ojeda Chaco For Ever Ativo 94 / 112 40% 1 22.11.2026 -
Ezequiel Soriano Olimpia Ativo 94 / 91 40% 1 22.11.2026 -
Rodrigo Viera Cerrito Ativo 83 / 94 40% 1 21.11.2026 -
Maico Quiroz Güemes Ativo 128 / 124 40% 1 21.11.2026 -
Ignacio Yepez Cerrito Ativo 112 / 107 40% 1 21.11.2026 -
Daniel Molina Caracas Ativo 89 / 89 40% 1 20.11.2026 -
Rodrigo González Mitre Ativo 100 / 126 40% 1 20.11.2026 -
Joaquín Fernández Deportivo Maldonado Ativo 84 / 100 40% 1 18.11.2026 -
Ramiro Alderete Cerro Porteno Ativo 96 / 98 40% 1 18.11.2026 -
Andi Vidal Nacional Ativo 74 / 84 40% 1 17.11.2026 -
Rodrigo Cabrera River Plate Ativo 89 / 110 40% 1 14.11.2026 -
Andrés Olivera Colon Ativo 93 / 96 40% 2 13.11.2026 -
Alan Barrionuevo Tigre Ativo 117 / 123 40% 1 13.11.2026 -
Gabriel Chocobar Oriental Ativo 100 / 91 40% 1 12.11.2026 -
Abraham Bahachille Carabobo Ativo 99 / 94 40% 1 12.11.2026 -
Aarón Reartes Wanderers Ativo 84 / 96 40% 1 12.11.2026 -
Maicol Ferreira Danubio Ativo 119 / 102 40% 1 12.11.2026 -
Juan Quintana Montevideo City Torque Ativo 110 / 107 40% 1 10.11.2026 -
Matías Machado Racing Ativo 111 / 111 40% 1 10.11.2026 -
Gonzalo Gamarra Defensores Ativo 96 / 99 40% 2 09.11.2026 -
Lucas Ferraz Vila Wanderers Ativo 82 / 84 40% 1 09.11.2026 -
Brian Farioli Estudiantes Ativo 124 / 116 40% 1 09.11.2026 -
Eduardo Agüero Montevideo City Torque Ativo 115 / 114 40% 1 09.11.2026 -
Alejo Antilef Penarol Ativo 117 / 108 40% 3 07.11.2026 -
Facundo Pérez Juventud Ativo 88 / 112 40% 1 07.11.2026 -
Enzo Cabrera Danubio Ativo 121 / 123 40% 1 06.11.2026 -
Agustín Pereira Albion Ativo 98 / 101 40% 4 01.11.2026 -
Alan Robledo O'Higgins Ativo 104 / 113 40% 1 30.10.2026 -
Ignacio Rodríguez Central Espanol Ativo 106 / 104 40% 1 29.10.2026 -
Álex de Freitas Miramar Misiones Ativo 98 / 96 40% 1 29.10.2026 -
Mariano Ramos Guarani Ativo 105 / 98 40% 4 28.10.2026 -
Nahuel Sena Cerro Ativo 86 / 111 40% 5 28.10.2026 -
Jairo Amaro Cerro Ativo 107 / 108 40% 1 28.10.2026 -
Iván Pomba River Plate Ativo 98 / 102 40% 1 28.10.2026 -
Juan Pérez Racing Ativo 99 / 101 40% 2 26.10.2026 -
Germán Peralta La Luz Ativo 88 / 106 40% 1 26.10.2026 -
Juan Carlos Portillo River Plate Ativo 141 / 134 40% 2 25.10.2026 -
Alejo Tabares All Boys Ativo 109 / 129 40% 1 24.10.2026 -
Fernando Da Rosa Cesar Vallejo Ativo 95 / 93 40% 1 24.10.2026 -
Jonathan Baeza La Luz Ativo 103 / 99 40% 1 23.10.2026 -
Rafael Sangiovani Metropolitanos Ativo 100 / 108 40% 1 23.10.2026 -
Tomás Jacob Atlanta United FC Ativo 106 / 126 40% 3 22.10.2026 -
Ramiro Brazionis Racing Ativo 114 / 95 40% 1 22.10.2026 -
Nicolás Fernandez Universidad de Chile Ativo 109 / 110 40% 1 21.10.2026 -
Lisandro Montenegro Chacarita Juniors Ativo 115 / 107 40% 1 21.10.2026 -
Nicolás Morro Defensores Ativo 101 / 100 40% 1 20.10.2026 -
Kevin Lewis Liverpool Montevideo Ativo 108 / 96 40% 1 20.10.2026 -
Agustín Pons Uruguay Montevideo Ativo 87 / 86 40% 1 19.10.2026 -
Román Suárez Alianza Atletico Ativo 94 / 107 40% 1 19.10.2026 -
Franco Fagúndez Estudiantes Ativo 113 / 116 40% 1 17.10.2026 -
Santiago Sala Güemes Ativo 103 / 114 40% 1 17.10.2026 -
Facundo Perdomo Liverpool Montevideo Ativo 102 / 107 40% 1 16.10.2026 -
Facundo Butti Cerro Ativo 98 / 103 40% 1 16.10.2026 -
Gonzalo Mottes Chacarita Juniors Ativo 106 / 107 40% 1 14.10.2026 -
Mateo Jara Sportivo Luqueno Ativo 88 / 81 40% 1 12.10.2026 -
Hugo Ancajima Universitario Ativo 105 / 103 40% 1 11.10.2026 -
Nahuel Gallardo San Martín Ativo 124 / 103 40% 1 11.10.2026 -
Gonzalo Silva Progreso Ativo 106 / 109 40% 1 10.10.2026 -
Augusto Gallo Fenix Ativo 101 / 92 40% 3 09.10.2026 -
Juan Ignacio Dupont Central Espanol Ativo 83 / 92 40% 1 09.10.2026 -
Enzo Castillo Liverpool Montevideo Ativo 94 / 97 40% 1 08.10.2026 -
Néstor Giménez Libertad Ativo 108 / 101 40% 1 07.10.2026 -
Emanuel Carlos Atenas Ativo 107 / 87 40% 1 06.10.2026 -
Franco Martínez Artigas Ativo 95 / 108 40% 1 06.10.2026 -
Leandro Méndez Colon Ativo 102 / 102 40% 1 05.10.2026 -
Marco Miori Alvarado Ativo 107 / 120 40% 1 05.10.2026 -
Martín Ginzo Deportivo Maldonado Ativo 94 / 101 40% 1 02.10.2026 -
Facundo Centurión Alvarado Ativo 97 / 99 40% 1 02.10.2026 -
Santiago Costa Albion Ativo 112 / 117 40% 2 01.10.2026 -
Milton Valenzuela Atlas Ativo 101 / 133 40% 5 30.09.2026 -
Juan José Tello Deportivo Cali Ativo 109 / 118 40% 1 30.09.2026 -
Nicolás Gil Leones Ativo 113 / 106 40% 1 29.09.2026 -
Marco Farfan Tigres Ativo 129 / 110 40% 1 29.09.2026 -
Iván Tapia Barracas Central Ativo 107 / 126 40% 1 28.09.2026 -
Gianluca Pugliese Güemes Ativo 121 / 114 40% 1 28.09.2026 -
Lautaro Lovazzano Portuguesa Ativo 101 / 110 40% 1 28.09.2026 -
Luciano Minhondo Uruguay Montevideo Ativo 103 / 100 40% 3 27.09.2026 -
Santiago Homenchenko Queretaro Ativo 115 / 117 40% 1 25.09.2026 -
Gonzalo Pérez Lanús Ativo 108 / 134 40% 1 24.09.2026 -
Maximiliano Zelaya Miramar Misiones Ativo 92 / 94 40% 2 22.09.2026 -
Juan José Mera Deportes Tolima Ativo 107 / 115 40% 2 21.09.2026 -
Tomás Porra Barracas Central Ativo 116 / 118 40% 1 19.09.2026 -
Daniel Mantilla Llaneros Ativo 113 / 111 40% 1 18.09.2026 -
Simón Meza Cerrito Ativo 87 / 89 40% 1 18.09.2026 -
Julián Aude LA Galaxy Ativo 123 / 126 40% 1 17.09.2026 -
Agustín Araujo Trujillanos Ativo 101 / 112 40% 1 17.09.2026 -
Juan Felipe Holguín Envigado Ativo 100 / 95 40% 1 14.09.2026 -
Kevin Palacios Santos Laguna Ativo 128 / 127 40% 1 14.09.2026 -
Carlos Gugenheim Almirante Brown Ativo 109 / 126 40% 1 12.09.2026 -
Siro Rosané Estudiantes Ativo 125 / 122 40% 1 12.09.2026 -
Sebastián Guzmán Deportes Tolima Ativo 111 / 106 40% 1 10.09.2026 -
Daniel Zapata Envigado Ativo 104 / 106 40% 1 08.09.2026 -
Erico Cuello Defensor Sporting Ativo 94 / 92 40% 1 08.09.2026 -
Matías Núñez Carabobo Ativo 107 / 106 40% 1 07.09.2026 -
Raúl Lozano Quilmes Ativo 132 / 123 40% 1 07.09.2026 -
Andrés Romero Albion Ativo 106 / 94 40% 1 06.09.2026 -
Jorge Murrugarra Universitario Ativo 110 / 119 40% 1 04.09.2026 -
Lucas Quintana Cerro Porteno Ativo 111 / 127 40% 1 04.09.2026 -
Isaac Méndez Central Espanol Ativo 90 / 91 40% 1 03.09.2026 -
Mauro Martín Progreso Ativo 90 / 107 40% 1 03.09.2026 -
Ismael Tejería Rampla Juniors Ativo 106 / 106 40% 1 02.09.2026 -
Agustín Pérez Deportivo Tachira Ativo 103 / 90 40% 1 02.09.2026 -
Ronaldo Lora Real Cartagena Ativo 125 / 120 40% 1 02.09.2026 -
Mateo Ayres Cerrito Ativo 110 / 109 40% 1 02.09.2026 -
Carlos Romaña Atletico Bucaramanga Ativo 111 / 112 40% 1 29.08.2026 -
Kevin Cuesta Atletico Nacional Ativo 112 / 116 40% 1 29.08.2026 -
Daniel Arcila Leon Ativo 117 / 127 40% 1 29.08.2026 -
Efraín Navarro Once Caldas Ativo 111 / 114 40% 1 24.08.2026 -
Mathías Pintos La Luz Ativo 102 / 91 40% 1 24.08.2026 -
Maicol Borba Atenas Ativo 89 / 85 40% 1 22.08.2026 -
Tomás Moschion Albion Ativo 113 / 105 40% 1 22.08.2026 -
Brian González Atenas Ativo 105 / 104 40% 1 22.08.2026 -
Marcos Mina America de Cali Ativo 99 / 124 40% 1 18.08.2026 -
Martín Rea Atletico Bucaramanga Ativo 117 / 103 40% 1 17.08.2026 -
Tadeo Aguiar La Luz Ativo 80 / 104 40% 1 16.08.2026 -
Federico Dafonte Boston River Ativo 96 / 103 40% 1 15.08.2026 -
Rodrigo Schlegel Atlas Ativo 115 / 129 40% 1 15.08.2026 -
Jorge Espejo Universidad de Concepcion Ativo 96 / 116 40% 1 14.08.2026 -
Facundo Parada Racing Ativo 96 / 111 40% 1 13.08.2026 -
Nicolás Kozlovsky Oriental Ativo 94 / 96 40% 1 13.08.2026 -
Johan Hinestroza Jaguares Ativo 93 / 93 40% 1 12.08.2026 -
Benjamín Ilama Uruguay Montevideo Ativo 106 / 95 40% 1 11.08.2026 -
Jimmy Martínez Universidad Catolica Ativo 95 / 95 40% 1 10.08.2026 -
Éwil Murillo Santa Fe Ativo 116 / 104 40% 1 10.08.2026 -
Jeremy Márquez Cruz Azul Ativo 108 / 140 40% 1 09.08.2026 -
Franco Bigo 12 de Octubre Ativo 74 / 91 40% 1 06.08.2026 -
Francisco Ginella Albion Ativo 117 / 107 40% 1 06.08.2026 -
Aldair Gutiérrez Atletico Bucaramanga Ativo 108 / 109 40% 1 03.08.2026 -
Nicolás dos Santos River Plate Ativo 100 / 102 40% 1 02.08.2026 -
Daniel Rivera Junior Ativo 122 / 105 40% 1 01.08.2026 -